FW0637 Weather Reports


time (UTC)temp
C
wind
direction
speed
KPH
gust
KPH
rain 1hr
cm
rain 24hr
cm
rain mn
cm
humidity
%
barometer
mb
20260506091535 -17 0.0 0.0 0.00 0.00 0.00 1004.8
20260506090031 -17 0.0 0.0 0.00 0.00 0.00 1004.8
20260506084527 -17 0.0 0.0 0.00 0.00 0.00 1004.8
20260506083023 -17 0.0 0.0 0.00 0.00 0.00 1004.7
20260506081518 -17 0.0 0.0 0.00 0.00 0.00 1004.8
20260506073008 -17 0.0 0.0 0.00 0.00 0.00 1005.2
20260506071502 -17 0.0 0.0 0.00 0.00 0.00 1005.4
20260506061545 -17 153 1.6 12.9 0.00 0.00 0.00 92 1005.3
20260506044537 24 187 1.6 14.5 0.00 0.00 0.00 89 1005.5
20260506043036 24 154 3.2 11.3 0.00 0.00 0.00 89 1005.4
20260506041535 24 150 4.8 11.3 0.00 0.00 0.00 89 1005.2
20260506040035 24 138 4.8 14.5 0.00 0.00 0.00 89 1005.1
20260506034534 24 165 3.2 12.9 0.00 0.00 0.00 89 1004.8
20260506033034 25 137 3.2 14.5 0.00 0.00 0.00 88 1004.6
20260506031534 25 127 1.6 14.5 0.00 0.00 0.00 88 1004.5
20260506030037 25 175 3.2 16.1 0.00 0.00 0.00 87 1004.2
20260506024543 25 134 1.6 12.9 0.00 0.00 0.00 87 1004.0
20260506023033 25 124 1.6 11.3 0.00 0.00 0.00 85 1003.8
20260506021532 25 142 1.6 8.0 0.00 0.00 0.00 84 1003.5
20260506020031 26 148 1.6 11.3 0.00 0.00 0.00 83 1003.4
20260506014536 26 111 0.0 0.0 0.00 0.00 0.00 82 1003.2
20260506013034 26 142 0.0 0.0 0.00 0.00 0.00 81 1003.2
20260506011530 27 128 0.0 0.0 0.00 0.00 0.00 80 1003.2
20260506010033 27 136 0.0 1.6 0.00 0.00 0.00 79 1003.1
20260506004532 27 132 0.0 8.0 0.00 0.00 0.00 78 1002.9
20260506003035 27 146 0.0 0.0 0.00 0.00 0.00 77 1002.9
20260506001533 27 166 0.0 0.0 0.00 0.00 0.00 77 1002.7
20260506000027 28 141 0.0 11.3 0.00 0.00 0.00 77 1002.8
20260505234529 28 171 0.0 11.3 0.00 0.00 0.00 75 1002.7
20260505233025 28 167 0.0 11.3 0.00 0.00 0.00 75 1002.5
20260505231523 28 153 0.0 6.4 0.00 0.00 0.00 74 1002.6
20260505230043 28 151 0.0 11.3 0.00 0.00 0.00 74 1002.4
20260505224522 28 146 0.0 12.9 0.00 0.00 0.00 75 1002.3
20260505223020 28 150 0.0 11.3 0.00 0.00 0.00 75 1002.5
20260505221520 28 171 3.2 17.7 0.00 0.00 0.00 74 1002.4
20260505220024 28 190 3.2 12.9 0.00 0.00 0.00 74 1002.6
20260505214516 28 182 0.0 17.7 0.00 0.00 0.00 73 1002.9
20260505213014 28 180 0.0 12.9 0.00 0.00 0.00 73 1003.0
20260505211515 28 302 1.6 14.5 0.00 0.00 0.00 75 1003.1
20260505210015 28 165 3.2 16.1 0.00 0.00 0.00 74 1003.3
20260505204508 28 148 1.6 9.7 0.00 0.00 0.00 76 1003.7
20260505203006 28 174 6.4 14.5 0.00 0.00 0.00 75 1004.1
20260505201511 27 136 4.8 16.1 0.00 0.00 0.00 74 1004.2
20260505200002 27 168 6.4 14.5 0.00 0.00 0.00 78 1004.2
20260505194559 26 144 4.8 14.5 0.00 0.00 0.00 79 1004.4
20260505193059 26 145 3.2 12.9 0.00 0.00 0.00 79 1004.6
20260505191613 26 159 3.2 14.5 0.00 0.00 0.00 80 1004.9
20260505190056 26 153 4.8 16.1 0.00 0.00 0.00 80 1004.9
20260505184555 26 171 4.8 14.5 0.00 0.00 0.00 81 1005.1
20260505183053 26 168 0.0 11.3 0.00 0.00 0.00 82 1005.1
20260505181550 25 267 4.8 12.9 0.00 0.00 0.00 83 1005.3
20260505180100 25 187 3.2 9.7 0.00 0.00 0.00 85 1005.5
20260505174553 24 156 1.6 12.9 0.00 0.00 0.00 87 1005.8
20260505173046 23 219 1.6 12.9 0.00 0.00 0.00 88 1006.0
20260505171539 23 194 1.6 12.9 0.00 0.00 0.00 88 1006.0
20260505170038 23 196 1.6 11.3 0.00 0.00 0.00 89 1006.1
20260505164539 22 213 3.2 12.9 0.00 0.00 0.00 89 1006.1
20260505163032 22 207 3.2 9.7 0.00 0.00 0.00 89 1006.1
20260505161524 22 195 3.2 12.9 0.00 0.00 0.00 90 1006.1
20260505153017 21 149 3.2 11.3 0.00 0.00 0.00 92 1006.0
20260505151515 21 183 6.4 16.1 0.00 0.00 0.00 92 1006.0
20260505124505 21 176 1.6 14.5 0.00 0.00 0.00 92 1004.9
20260505123006 21 179 3.2 17.7 0.00 0.00 0.00 93 1004.7
20260505121600 21 174 3.2 19.3 0.00 0.00 0.00 93 1004.6
20260505120104 20 195 3.2 16.1 0.00 0.00 0.00 93 1004.5
20260505114602 20 175 3.2 16.1 0.00 0.00 0.00 93 1004.2
20260505113057 20 174 3.2 14.5 0.00 0.00 0.00 92 1004.5
20260505111556 20 163 3.2 14.5 0.00 0.00 0.00 92 1004.4
20260505101606 20 163 6.4 17.7 0.00 0.00 0.00 91 1004.6
20260505094551 20 175 6.4 16.1 0.00 0.00 0.00 91 1004.7
20260505093101 20 220 4.8 16.1 0.00 0.00 0.00 91 1004.9